This is the latest recevied weather packets stored in our database for station/object HB9BB-10. If no packets are shown the sender has not sent any weather packets the latest 10 day(s).
| Time | Temp. | Humidity | Pressure | Rain* | Wind** | Luminosity | Snow |
|---|---|---|---|---|---|---|---|
| 1788392001 | 23.33° C | 30% | 1040.2 hPa | - | - | - | - |
| 1788390621 | 23.33° C | 30% | 1040.3 hPa | - | - | - | - |
| 1788389240 | 23.33° C | 30% | 1040.2 hPa | - | - | - | - |
| 1788387860 | 23.89° C | 30% | 1040.4 hPa | - | - | - | - |
| 1788386480 | 23.89° C | 30% | 1040.3 hPa | - | - | - | - |
| 1788385100 | 25° C | 30% | 1040.1 hPa | - | - | - | - |
| 1788383720 | 24.44° C | 30% | 1040 hPa | - | - | - | - |
| 1788382339 | 25° C | 30% | 1040 hPa | - | - | - | - |
| 1788380959 | 25.56° C | 30% | 1039.8 hPa | - | - | - | - |
| 1788379579 | 25.56° C | 30% | 1039.8 hPa | - | - | - | - |
| 1788378199 | 25.56° C | 30% | 1039.9 hPa | - | - | - | - |
| 1788376819 | 25.56° C | 30% | 1039.8 hPa | - | - | - | - |
| 1788375438 | 25° C | 31% | 1039.6 hPa | - | - | - | - |
| 1788374058 | 25.56° C | 31% | 1039.4 hPa | - | - | - | - |
| 1788372678 | 25.56° C | 31% | 1039.3 hPa | - | - | - | - |
| 1788371298 | 25.56° C | 31% | 1039.1 hPa | - | - | - | - |
| 1788369918 | 26.11° C | 32% | 1039.1 hPa | - | - | - | - |
| 1788368538 | 26.11° C | 31% | 1039 hPa | - | - | - | - |
| 1788367157 | 26.11° C | 31% | 1038.9 hPa | - | - | - | - |
| 1788365777 | 26.11° C | 32% | 1038.6 hPa | - | - | - | - |
| 1788364397 | 26.11° C | 32% | 1038.6 hPa | - | - | - | - |
| 1788363017 | 26.11° C | 31% | 1038.6 hPa | - | - | - | - |
| 1788361637 | 26.11° C | 32% | 1038.6 hPa | - | - | - | - |
| 1788360256 | 26.11° C | 31% | 1038.6 hPa | - | - | - | - |
| 1788358876 | 25.56° C | 31% | 1038.6 hPa | - | - | - | - |
* Rain since midnight (hover to see other rain measurements)
** Current wind speed in m/s (hover to see current wind gust speed)